| time (UTC) | temp F | wind direction | speed MPH | gust MPH | rain 1hr in | rain 24hr in | rain mn in | humidity % | barometer mb |
| 20260510043106 | 55 | 356 | 0.0 | 0.0 | 0.00 | 0.00 | 0.00 | 80 | 1015.4 |
| 20260510042451 | 56 | 0 | 0.0 | 0.0 | 0.00 | 0.00 | 0.00 | 78 | 1014.8 |
| 20260510041551 | 57 | 0 | 0.0 | 0.0 | 0.00 | 0.00 | 0.00 | 77 | 1015.0 |
| 20260510041502 | 57 | 356 | 0.0 | 0.0 | 0.00 | 0.00 | 0.00 | 77 | 1015.3 |
| 20260510040651 | 58 | 0 | 0.0 | 0.0 | 0.00 | 0.00 | 0.00 | 76 | 1014.8 |
| 20260510035751 | 59 | 0 | 0.0 | 0.0 | 0.00 | 0.00 | 0.00 | 73 | 1014.7 |
| 20260510034851 | 60 | 0 | 0.0 | 0.0 | 0.00 | 0.00 | 0.00 | 73 | 1014.5 |
| 20260510034501 | 60 | 356 | 0.0 | 0.0 | 0.00 | 0.00 | 0.00 | 72 | 1015.3 |
| 20260510033952 | 61 | 0 | 0.0 | 0.0 | 0.00 | 0.00 | 0.00 | 70 | 1014.8 |
| 20260510033113 | 61 | 356 | 0.0 | 0.0 | 0.00 | 0.00 | 0.00 | 69 | 1015.3 |
| 20260510032151 | 63 | 0 | 0.0 | 0.0 | 0.00 | 0.00 | 0.00 | 67 | 1014.7 |
| 20260510031505 | 63 | 356 | 0.0 | 0.0 | 0.00 | 0.00 | 0.00 | 66 | 1015.2 |
| 20260510031251 | 64 | 0 | 0.0 | 0.0 | 0.00 | 0.00 | 0.00 | 66 | 1014.7 |
| 20260510030104 | 65 | 356 | 0.0 | 0.0 | 0.00 | 0.00 | 0.00 | 63 | 1015.2 |
| 20260510025451 | 66 | 0 | 0.0 | 0.0 | 0.00 | 0.00 | 0.00 | 62 | 1014.7 |
| 20260510024551 | 68 | 0 | 0.0 | 0.0 | 0.00 | 0.00 | 0.00 | 59 | 1014.7 |
| 20260510024502 | 67 | 356 | 0.0 | 0.0 | 0.00 | 0.00 | 0.00 | 60 | 1015.0 |
| 20260510023651 | 68 | 0 | 0.0 | 0.0 | 0.00 | 0.00 | 0.00 | 57 | 1014.6 |
| 20260510023101 | 68 | 310 | 0.0 | 2.0 | 0.00 | 0.00 | 0.00 | 57 | 1015.2 |
| 20260510022751 | 69 | 0 | 0.0 | 2.0 | 0.00 | 0.00 | 0.00 | 56 | 1014.6 |
| 20260510021851 | 70 | 0 | 0.0 | 1.0 | 0.00 | 0.00 | 0.00 | 56 | 1014.7 |
| 20260510020951 | 70 | 0 | 0.0 | 0.0 | 0.00 | 0.00 | 0.00 | 56 | 1014.8 |
| 20260510020101 | 70 | 312 | 0.0 | 3.0 | 0.00 | 0.00 | 0.00 | 57 | 1015.4 |
| 20260510020051 | 70 | 321 | 1.0 | 3.0 | 0.00 | 0.00 | 0.00 | 57 | 1014.9 |
| 20260510015151 | 70 | 311 | 1.0 | 3.0 | 0.00 | 0.00 | 0.00 | 55 | 1014.8 |
| 20260510014503 | 70 | 304 | 1.0 | 3.0 | 0.00 | 0.00 | 0.00 | 54 | 1015.6 |
| 20260510014252 | 71 | 323 | 1.0 | 4.0 | 0.00 | 0.00 | 0.00 | 56 | 1015.1 |
| 20260510013102 | 70 | 288 | 0.0 | 3.0 | 0.00 | 0.00 | 0.00 | 55 | 1015.7 |
| 20260510012451 | 71 | 0 | 0.0 | 0.0 | 0.00 | 0.00 | 0.00 | 56 | 1015.4 |
| 20260510011551 | 71 | 0 | 0.0 | 0.0 | 0.00 | 0.00 | 0.00 | 54 | 1015.4 |
| 20260510011502 | 71 | 254 | 0.0 | 0.0 | 0.00 | 0.00 | 0.00 | 53 | 1016.0 |
| 20260510005752 | 72 | 319 | 0.0 | 3.0 | 0.00 | 0.00 | 0.00 | 53 | 1015.5 |
| 20260510004851 | 72 | 316 | 1.0 | 5.0 | 0.00 | 0.00 | 0.00 | 55 | 1015.7 |
| 20260510004501 | 72 | 317 | 0.0 | 5.0 | 0.00 | 0.00 | 0.00 | 56 | 1016.1 |
| 20260510003952 | 73 | 327 | 1.0 | 5.0 | 0.00 | 0.00 | 0.00 | 54 | 1015.7 |
| 20260510003103 | 72 | 62 | 0.0 | 6.0 | 0.00 | 0.00 | 0.00 | 55 | 1016.2 |
| 20260510003051 | 73 | 346 | 1.0 | 6.0 | 0.00 | 0.00 | 0.00 | 55 | 1015.7 |
| 20260510002151 | 72 | 325 | 1.0 | 4.0 | 0.00 | 0.00 | 0.00 | 57 | 1015.8 |
| 20260510001502 | 72 | 338 | 0.0 | 5.0 | 0.00 | 0.00 | 0.00 | 58 | 1016.3 |
| 20260510001251 | 72 | 327 | 2.0 | 5.0 | 0.00 | 0.00 | 0.00 | 57 | 1015.7 |
| 20260510000104 | 72 | 271 | 2.0 | 7.0 | 0.00 | 0.00 | 0.00 | 56 | 1016.3 |
| 20260509235451 | 73 | 306 | 1.0 | 3.0 | 0.00 | 0.00 | 0.00 | 56 | 1015.9 |
| 20260509234501 | 73 | 259 | 1.0 | 5.0 | 0.00 | 0.00 | 0.00 | 55 | 1016.4 |
| 20260509233652 | 74 | 318 | 1.0 | 4.0 | 0.00 | 0.00 | 0.00 | 53 | 1016.2 |
| 20260509233101 | 73 | 321 | 1.0 | 4.0 | 0.00 | 0.00 | 0.00 | 55 | 1016.6 |
| 20260509232751 | 73 | 315 | 0.0 | 4.0 | 0.00 | 0.00 | 0.00 | 53 | 1016.3 |
| 20260509231851 | 74 | 4 | 1.0 | 4.0 | 0.00 | 0.00 | 0.00 | 53 | 1016.3 |
| 20260509231501 | 73 | 271 | 0.0 | 5.0 | 0.00 | 0.00 | 0.00 | 53 | 1016.9 |
| 20260509230951 | 74 | 324 | 0.0 | 5.0 | 0.00 | 0.00 | 0.00 | 53 | 1016.4 |
| 20260509225151 | 73 | 308 | 1.0 | 5.0 | 0.00 | 0.00 | 0.00 | 53 | 1016.6 |
| 20260509224501 | 73 | 105 | 0.0 | 2.0 | 0.00 | 0.00 | 0.00 | 53 | 1017.3 |
| 20260509224251 | 74 | 322 | 1.0 | 3.0 | 0.00 | 0.00 | 0.00 | 52 | 1016.6 |
| 20260509223352 | 73 | 332 | 1.0 | 4.0 | 0.00 | 0.00 | 0.00 | 53 | 1016.7 |
| 20260509223104 | 72 | 347 | 0.0 | 3.0 | 0.00 | 0.00 | 0.00 | 52 | 1017.3 |
| 20260509221552 | 72 | 298 | 1.0 | 5.0 | 0.00 | 0.00 | 0.00 | 52 | 1017.1 |
| 20260509221502 | 72 | 316 | 2.0 | 5.0 | 0.00 | 0.00 | 0.00 | 51 | 1017.7 |
| 20260509220651 | 72 | 240 | 2.0 | 4.0 | 0.00 | 0.00 | 0.00 | 53 | 1017.3 |
| 20260509215752 | 71 | 331 | 2.0 | 7.0 | 0.00 | 0.00 | 0.00 | 54 | 1017.5 |
| 20260509214852 | 71 | 323 | 1.0 | 7.0 | 0.00 | 0.00 | 0.00 | 54 | 1017.5 |
| 20260509214501 | 71 | 213 | 1.0 | 4.0 | 0.00 | 0.00 | 0.00 | 55 | 1018.1 |
| 20260509213952 | 71 | 267 | 1.0 | 4.0 | 0.00 | 0.00 | 0.00 | 58 | 1017.9 |
| 20260509213104 | 70 | 283 | 2.0 | 6.0 | 0.00 | 0.00 | 0.00 | 59 | 1018.6 |
| 20260509212152 | 70 | 237 | 2.0 | 5.0 | 0.00 | 0.00 | 0.00 | 60 | 1017.9 |
| 20260509211502 | 69 | 217 | 0.0 | 7.0 | 0.00 | 0.00 | 0.00 | 62 | 1018.5 |
| 20260509210352 | 69 | 302 | 1.0 | 5.0 | 0.00 | 0.00 | 0.00 | 62 | 1017.8 |
| 20260509210109 | 68 | 221 | 0.0 | 5.0 | 0.00 | 0.00 | 0.00 | 63 | 1018.5 |
| 20260509204552 | 69 | 286 | 2.0 | 5.0 | 0.00 | 0.00 | 0.00 | 63 | 1018.1 |
| 20260509204501 | 68 | 31 | 0.0 | 5.0 | 0.00 | 0.00 | 0.00 | 62 | 1018.6 |
| 20260509203652 | 69 | 275 | 1.0 | 6.0 | 0.00 | 0.00 | 0.00 | 62 | 1018.3 |
| 20260509203116 | 68 | 201 | 0.0 | 4.0 | 0.00 | 0.00 | 0.00 | 64 | 1018.6 |
| 20260509202752 | 69 | 263 | 2.0 | 4.0 | 0.00 | 0.00 | 0.00 | 63 | 1018.1 |
| 20260509201852 | 69 | 307 | 1.0 | 6.0 | 0.00 | 0.00 | 0.00 | 62 | 1018.0 |
| 20260509201502 | 69 | 295 | 1.0 | 3.0 | 0.00 | 0.00 | 0.00 | 65 | 1018.6 |
| 20260509200952 | 69 | 322 | 1.0 | 6.0 | 0.00 | 0.00 | 0.00 | 63 | 1018.3 |
| 20260509195152 | 68 | 283 | 2.0 | 6.0 | 0.00 | 0.00 | 0.00 | 64 | 1018.6 |
| 20260509194504 | 69 | 259 | 3.0 | 6.0 | 0.00 | 0.00 | 0.00 | 62 | 1019.1 |
| 20260509194252 | 70 | 176 | 1.0 | 4.0 | 0.00 | 0.00 | 0.00 | 60 | 1018.5 |
| 20260509193352 | 69 | 289 | 1.0 | 3.0 | 0.00 | 0.00 | 0.00 | 61 | 1018.5 |
| 20260509193111 | 69 | 335 | 0.0 | 3.0 | 0.00 | 0.00 | 0.00 | 60 | 1019.1 |
| 20260509192452 | 68 | 257 | 1.0 | 4.0 | 0.00 | 0.00 | 0.00 | 62 | 1018.7 |
| 20260509191552 | 68 | 288 | 2.0 | 5.0 | 0.00 | 0.00 | 0.00 | 63 | 1019.0 |
| 20260509191502 | 67 | 261 | 0.0 | 6.0 | 0.00 | 0.00 | 0.00 | 62 | 1019.5 |
| 20260509190652 | 67 | 296 | 2.0 | 5.0 | 0.00 | 0.00 | 0.00 | 65 | 1019.0 |
| 20260509190101 | 67 | 246 | 1.0 | 6.0 | 0.00 | 0.00 | 0.00 | 64 | 1019.6 |
| 20260509185752 | 68 | 332 | 1.0 | 5.0 | 0.00 | 0.00 | 0.00 | 63 | 1019.0 |
| 20260509184602 | 65 | 311 | 0.0 | 6.0 | 0.00 | 0.00 | 0.00 | 67 | 1019.7 |
| 20260509183952 | 65 | 314 | 1.0 | 6.0 | 0.00 | 0.00 | 0.00 | 68 | 1019.3 |
| 20260509183052 | 65 | 312 | 2.0 | 6.0 | 0.00 | 0.00 | 0.00 | 69 | 1019.2 |
| 20260509183003 | 64 | 1 | 1.0 | 6.0 | 0.00 | 0.00 | 0.00 | 69 | 1019.8 |
| 20260509182152 | 64 | 289 | 1.0 | 5.0 | 0.00 | 0.00 | 0.00 | 70 | 1019.3 |
| 20260509181604 | 64 | 232 | 0.0 | 4.0 | 0.00 | 0.00 | 0.00 | 73 | 1019.9 |
| 20260509181252 | 64 | 261 | 1.0 | 4.0 | 0.00 | 0.00 | 0.00 | 71 | 1019.2 |
| 20260509180352 | 63 | 270 | 1.0 | 4.0 | 0.00 | 0.00 | 0.00 | 72 | 1019.3 |
| 20260509180002 | 63 | 55 | 0.0 | 4.0 | 0.00 | 0.00 | 0.00 | 73 | 1019.7 |
| 20260509175452 | 62 | 283 | 1.0 | 4.0 | 0.00 | 0.00 | 0.00 | 75 | 1019.1 |
| 20260509174624 | 61 | 288 | 2.0 | 4.0 | 0.00 | 0.00 | 0.00 | 74 | 1019.7 |
| 20260509174552 | 62 | 298 | 2.0 | 5.0 | 0.00 | 0.00 | 0.00 | 74 | 1019.1 |
| 20260509173652 | 61 | 297 | 2.0 | 5.0 | 0.00 | 0.00 | 0.00 | 76 | 1019.5 |
| 20260509173001 | 61 | 271 | 1.0 | 6.0 | 0.00 | 0.00 | 0.00 | 76 | 1020.1 |
| 20260509172752 | 61 | 281 | 1.0 | 6.0 | 0.00 | 0.00 | 0.00 | 76 | 1019.6 |
| 20260509171852 | 60 | 262 | 1.0 | 4.0 | 0.00 | 0.00 | 0.00 | 78 | 1019.9 |
| 20260509171601 | 60 | 223 | 0.0 | 4.0 | 0.00 | 0.00 | 0.00 | 78 | 1020.3 |
| 20260509170052 | 59 | 304 | 2.0 | 6.0 | 0.00 | 0.00 | 0.00 | 79 | 1020.0 |
| 20260509170004 | 59 | 295 | 0.0 | 6.0 | 0.00 | 0.00 | 0.00 | 79 | 1020.7 |
| 20260509165152 | 59 | 310 | 1.0 | 4.0 | 0.00 | 0.00 | 0.00 | 80 | 1019.9 |
| 20260509164603 | 59 | 353 | 1.0 | 4.0 | 0.00 | 0.00 | 0.00 | 79 | 1020.4 |
| 20260509164252 | 59 | 302 | 1.0 | 4.0 | 0.00 | 0.00 | 0.00 | 81 | 1020.0 |
| 20260509163352 | 58 | 288 | 1.0 | 5.0 | 0.00 | 0.00 | 0.00 | 83 | 1020.1 |
| 20260509163001 | 57 | 316 | 0.0 | 5.0 | 0.00 | 0.00 | 0.00 | 82 | 1020.6 |
| 20260509161603 | 57 | 42 | 1.0 | 3.0 | 0.00 | 0.00 | 0.00 | 84 | 1020.8 |
| 20260509160004 | 55 | 357 | 0.0 | 3.0 | 0.00 | 0.00 | 0.00 | 88 | 1020.9 |
| 20260509155752 | 56 | 298 | 1.0 | 3.0 | 0.00 | 0.00 | 0.00 | 88 | 1020.4 |
| 20260509154852 | 54 | 318 | 2.0 | 5.0 | 0.00 | 0.00 | 0.00 | 89 | 1020.5 |
| 20260509154602 | 54 | 317 | 1.0 | 5.0 | 0.00 | 0.00 | 0.00 | 89 | 1021.2 |
| 20260509153052 | 54 | 291 | 1.0 | 4.0 | 0.00 | 0.00 | 0.00 | 92 | 1020.6 |
| 20260509153002 | 53 | 255 | 0.0 | 3.0 | 0.00 | 0.00 | 0.00 | 92 | 1021.1 |
| 20260509152152 | 52 | 0 | 0.0 | 4.0 | 0.00 | 0.00 | 0.00 | 95 | 1020.5 |
| 20260509151603 | 51 | 262 | 0.0 | 2.0 | 0.00 | 0.00 | 0.00 | 97 | 1021.1 |
| 20260509150352 | 50 | 0 | 0.0 | 3.0 | 0.00 | 0.00 | 0.00 | 100 | 1020.7 |
| 20260509150004 | 49 | 254 | 0.0 | 1.0 | 0.00 | 0.00 | 0.00 | 98 | 1021.4 |
| 20260509145452 | 49 | 0 | 0.0 | 1.0 | 0.00 | 0.00 | 0.00 | 100 | 1020.7 |
| 20260509144603 | 49 | 229 | 0.0 | 1.0 | 0.00 | 0.00 | 0.00 | 98 | 1021.4 |
| 20260509144552 | 49 | 0 | 0.0 | 1.0 | 0.00 | 0.00 | 0.00 | 100 | 1020.8 |
| 20260509143652 | 48 | 0 | 0.0 | 0.0 | 0.00 | 0.00 | 0.00 | 100 | 1020.8 |
| 20260509143004 | 47 | 204 | 0.0 | 0.0 | 0.00 | 0.00 | 0.00 | 98 | 1021.3 |
| 20260509142752 | 48 | 0 | 0.0 | 0.0 | 0.00 | 0.00 | 0.00 | 100 | 1020.9 |
| 20260509141601 | 47 | 204 | 0.0 | 0.0 | 0.00 | 0.00 | 0.00 | 98 | 1021.3 |
| 20260509140952 | 47 | 0 | 0.0 | 0.0 | 0.00 | 0.00 | 0.00 | 100 | 1020.8 |
| 20260509140002 | 47 | 203 | 0.0 | 0.0 | 0.00 | 0.00 | 0.00 | 98 | 1021.3 |
| 20260509135152 | 47 | 0 | 0.0 | 1.0 | 0.00 | 0.00 | 0.00 | 100 | 1020.7 |
| 20260509134603 | 46 | 191 | 0.0 | 1.0 | 0.00 | 0.00 | 0.00 | 98 | 1021.2 |
| 20260509134252 | 46 | 0 | 0.0 | 0.0 | 0.00 | 0.00 | 0.00 | 100 | 1020.7 |
| 20260509133352 | 44 | 0 | 0.0 | 0.0 | 0.00 | 0.00 | 0.00 | 100 | 1020.7 |
| 20260509133003 | 44 | 229 | 0.0 | 0.0 | 0.00 | 0.00 | 0.00 | 97 | 1021.2 |
| 20260509132452 | 44 | 0 | 0.0 | 0.0 | 0.00 | 0.00 | 0.00 | 97 | 1020.7 |
| 20260509131603 | 43 | 229 | 0.0 | 0.0 | 0.00 | 0.00 | 0.00 | 97 | 1021.2 |
| 20260509131552 | 43 | 0 | 0.0 | 0.0 | 0.00 | 0.00 | 0.00 | 97 | 1020.7 |
| 20260509130652 | 43 | 0 | 0.0 | 0.0 | 0.00 | 0.00 | 0.00 | 96 | 1020.8 |
| 20260509130003 | 43 | 230 | 0.0 | 0.0 | 0.00 | 0.00 | 0.00 | 96 | 1021.3 |
| 20260509125752 | 43 | 0 | 0.0 | 0.0 | 0.00 | 0.00 | 0.00 | 96 | 1020.8 |
| 20260509124852 | 43 | 0 | 0.0 | 0.0 | 0.00 | 0.00 | 0.00 | 96 | 1021.0 |
| 20260509124601 | 43 | 230 | 0.0 | 0.0 | 0.00 | 0.00 | 0.00 | 96 | 1021.5 |
| 20260509123952 | 44 | 0 | 0.0 | 0.0 | 0.00 | 0.00 | 0.00 | 95 | 1020.7 |
| 20260509123052 | 44 | 0 | 0.0 | 0.0 | 0.00 | 0.00 | 0.00 | 96 | 1020.8 |
| 20260509123003 | 44 | 230 | 0.0 | 0.0 | 0.00 | 0.00 | 0.00 | 96 | 1021.4 |
| 20260509122152 | 45 | 0 | 0.0 | 0.0 | 0.00 | 0.00 | 0.00 | 96 | 1020.9 |
| 20260509121633 | 45 | 230 | 0.0 | 0.0 | 0.00 | 0.00 | 0.00 | 96 | 1021.5 |
| 20260509121252 | 46 | 0 | 0.0 | 0.0 | 0.00 | 0.00 | 0.00 | 96 | 1020.9 |
| 20260509120352 | 47 | 0 | 0.0 | 0.0 | 0.00 | 0.00 | 0.00 | 96 | 1020.8 |
| 20260509120003 | 47 | 230 | 0.0 | 0.0 | 0.00 | 0.00 | 0.00 | 96 | 1021.5 |
| 20260509114610 | 47 | 229 | 0.0 | 1.0 | 0.00 | 0.00 | 0.00 | 97 | 1021.5 |
| 20260509114553 | 48 | 0 | 0.0 | 1.0 | 0.00 | 0.00 | 0.00 | 97 | 1021.0 |
| 20260509113652 | 48 | 0 | 0.0 | 1.0 | 0.00 | 0.00 | 0.00 | 97 | 1021.1 |
| 20260509113002 | 47 | 230 | 0.0 | 2.0 | 0.00 | 0.00 | 0.00 | 97 | 1021.9 |
| 20260509112753 | 48 | 0 | 0.0 | 2.0 | 0.00 | 0.00 | 0.00 | 97 | 1021.2 |
| 20260509111604 | 47 | 124 | 0.0 | 0.0 | 0.00 | 0.00 | 0.00 | 97 | 1021.9 |
| 20260509110952 | 47 | 0 | 0.0 | 0.0 | 0.00 | 0.00 | 0.00 | 97 | 1021.4 |
| 20260509110053 | 47 | 0 | 0.0 | 0.0 | 0.00 | 0.00 | 0.00 | 97 | 1021.4 |
| 20260509110004 | 47 | 124 | 0.0 | 0.0 | 0.00 | 0.00 | 0.00 | 97 | 1022.0 |
| 20260509105152 | 47 | 0 | 0.0 | 1.0 | 0.00 | 0.00 | 0.00 | 97 | 1021.4 |
| 20260509104603 | 46 | 124 | 0.0 | 1.0 | 0.00 | 0.00 | 0.00 | 97 | 1021.8 |
| 20260509104252 | 47 | 0 | 0.0 | 0.0 | 0.00 | 0.00 | 0.00 | 97 | 1021.3 |
| 20260509103353 | 47 | 0 | 0.0 | 0.0 | 0.00 | 0.00 | 0.00 | 97 | 1021.4 |
| 20260509103003 | 46 | 124 | 0.0 | 0.0 | 0.00 | 0.00 | 0.00 | 97 | 1021.9 |
| 20260509102452 | 46 | 0 | 0.0 | 0.0 | 0.00 | 0.00 | 0.00 | 97 | 1021.4 |
| 20260509101619 | 46 | 124 | 0.0 | 0.0 | 0.00 | 0.00 | 0.00 | 97 | 1021.9 |
| 20260509101552 | 46 | 0 | 0.0 | 0.0 | 0.00 | 0.00 | 0.00 | 97 | 1021.4 |
| 20260509100652 | 46 | 0 | 0.0 | 0.0 | 0.00 | 0.00 | 0.00 | 97 | 1021.6 |
| 20260509100003 | 45 | 124 | 0.0 | 0.0 | 0.00 | 0.00 | 0.00 | 97 | 1022.2 |
| 20260509095752 | 46 | 0 | 0.0 | 0.0 | 0.00 | 0.00 | 0.00 | 97 | 1021.6 |
| 20260509094853 | 46 | 0 | 0.0 | 0.0 | 0.00 | 0.00 | 0.00 | 97 | 1021.6 |
| 20260509094611 | 45 | 124 | 0.0 | 1.0 | 0.00 | 0.00 | 0.00 | 97 | 1022.0 |
| 20260509093952 | 45 | 0 | 0.0 | 1.0 | 0.00 | 0.00 | 0.00 | 97 | 1021.7 |
| 20260509093052 | 45 | 0 | 0.0 | 2.0 | 0.00 | 0.00 | 0.00 | 97 | 1021.7 |
| 20260509093003 | 44 | 124 | 0.0 | 2.0 | 0.00 | 0.00 | 0.00 | 97 | 1022.3 |
| 20260509092152 | 44 | 0 | 0.0 | 0.0 | 0.00 | 0.00 | 0.00 | 97 | 1021.9 |
| 20260509091608 | 44 | 124 | 0.0 | 0.0 | 0.00 | 0.00 | 0.00 | 96 | 1022.3 |
| 20260509091253 | 44 | 0 | 0.0 | 0.0 | 0.00 | 0.00 | 0.00 | 96 | 1021.8 |
| 20260509090352 | 44 | 0 | 0.0 | 0.0 | 0.00 | 0.00 | 0.00 | 96 | 1021.7 |
| 20260509090002 | 44 | 124 | 0.0 | 0.0 | 0.00 | 0.00 | 0.00 | 96 | 1022.4 |
| 20260509085453 | 44 | 0 | 0.0 | 0.0 | 0.00 | 0.00 | 0.00 | 96 | 1021.8 |
| 20260509084604 | 44 | 124 | 0.0 | 0.0 | 0.00 | 0.00 | 0.00 | 95 | 1022.4 |
| 20260509084553 | 44 | 0 | 0.0 | 0.0 | 0.00 | 0.00 | 0.00 | 95 | 1021.8 |
| 20260509083653 | 44 | 0 | 0.0 | 0.0 | 0.00 | 0.00 | 0.00 | 96 | 1021.8 |
| 20260509083008 | 44 | 124 | 0.0 | 0.0 | 0.00 | 0.00 | 0.00 | 95 | 1022.5 |
| 20260509082753 | 44 | 0 | 0.0 | 0.0 | 0.00 | 0.00 | 0.00 | 96 | 1022.0 |
| 20260509081852 | 45 | 0 | 0.0 | 0.0 | 0.00 | 0.00 | 0.00 | 96 | 1021.9 |
| 20260509081605 | 44 | 124 | 0.0 | 0.0 | 0.00 | 0.00 | 0.00 | 96 | 1022.5 |
| 20260509080053 | 45 | 0 | 0.0 | 0.0 | 0.00 | 0.00 | 0.00 | 95 | 1022.0 |
| 20260509080005 | 45 | 124 | 0.0 | 0.0 | 0.00 | 0.00 | 0.00 | 95 | 1022.5 |
| 20260509075153 | 45 | 0 | 0.0 | 0.0 | 0.00 | 0.00 | 0.00 | 95 | 1021.9 |
| 20260509074602 | 45 | 124 | 0.0 | 0.0 | 0.00 | 0.00 | 0.00 | 95 | 1022.5 |
| 20260509074253 | 46 | 0 | 0.0 | 0.0 | 0.00 | 0.00 | 0.00 | 95 | 1022.0 |
| 20260509073352 | 46 | 0 | 0.0 | 0.0 | 0.00 | 0.00 | 0.00 | 95 | 1022.0 |
| 20260509073002 | 45 | 124 | 0.0 | 0.0 | 0.00 | 0.00 | 0.00 | 95 | 1022.5 |
| 20260509072452 | 46 | 0 | 0.0 | 0.0 | 0.00 | 0.00 | 0.00 | 95 | 1022.1 |
| 20260509071610 | 46 | 124 | 0.0 | 0.0 | 0.00 | 0.00 | 0.00 | 94 | 1022.6 |
| 20260509071553 | 46 | 0 | 0.0 | 0.0 | 0.00 | 0.00 | 0.00 | 94 | 1021.9 |
| 20260509070652 | 46 | 0 | 0.0 | 0.0 | 0.00 | 0.00 | 0.00 | 93 | 1021.8 |
| 20260509070003 | 46 | 124 | 0.0 | 0.0 | 0.00 | 0.00 | 0.00 | 93 | 1022.5 |
| 20260509065752 | 47 | 0 | 0.0 | 0.0 | 0.00 | 0.00 | 0.00 | 93 | 1021.9 |
| 20260509064853 | 47 | 0 | 0.0 | 0.0 | 0.00 | 0.00 | 0.00 | 93 | 1021.9 |
| 20260509064605 | 47 | 124 | 0.0 | 0.0 | 0.00 | 0.00 | 0.00 | 93 | 1022.4 |
| 20260509063953 | 48 | 0 | 0.0 | 0.0 | 0.00 | 0.00 | 0.00 | 93 | 1021.8 |
| 20260509063053 | 49 | 0 | 0.0 | 0.0 | 0.00 | 0.00 | 0.00 | 92 | 1021.9 |
| 20260509063008 | 48 | 124 | 0.0 | 0.0 | 0.00 | 0.00 | 0.00 | 92 | 1022.5 |
| 20260509062153 | 49 | 0 | 0.0 | 0.0 | 0.00 | 0.00 | 0.00 | 91 | 1021.9 |
| 20260509061604 | 49 | 124 | 0.0 | 0.0 | 0.00 | 0.00 | 0.00 | 91 | 1022.4 |
| 20260509061253 | 50 | 0 | 0.0 | 0.0 | 0.00 | 0.00 | 0.00 | 90 | 1021.8 |
| 20260509060353 | 50 | 0 | 0.0 | 0.0 | 0.00 | 0.00 | 0.00 | 90 | 1021.5 |
| 20260509060004 | 50 | 124 | 0.0 | 0.0 | 0.00 | 0.00 | 0.00 | 89 | 1022.2 |
| 20260509055453 | 51 | 0 | 0.0 | 0.0 | 0.00 | 0.00 | 0.00 | 88 | 1021.7 |
| 20260509054618 | 51 | 124 | 0.0 | 0.0 | 0.00 | 0.00 | 0.00 | 88 | 1022.3 |
| 20260509054552 | 52 | 0 | 0.0 | 0.0 | 0.00 | 0.00 | 0.00 | 88 | 1021.6 |
| 20260509053653 | 52 | 0 | 0.0 | 0.0 | 0.00 | 0.00 | 0.00 | 88 | 1021.7 |
| 20260509053002 | 52 | 124 | 0.0 | 0.0 | 0.00 | 0.00 | 0.00 | 87 | 1022.3 |
| 20260509051853 | 53 | 0 | 0.0 | 1.0 | 0.00 | 0.00 | 0.00 | 88 | 1021.6 |
| 20260509051602 | 52 | 107 | 0.0 | 1.0 | 0.00 | 0.00 | 0.00 | 88 | 1022.2 |
| 20260509050953 | 53 | 0 | 0.0 | 1.0 | 0.00 | 0.00 | 0.00 | 88 | 1021.5 |
| 20260509050053 | 53 | 0 | 0.0 | 1.0 | 0.00 | 0.00 | 0.00 | 87 | 1021.4 |
| 20260509050003 | 52 | 221 | 0.0 | 1.0 | 0.00 | 0.00 | 0.00 | 87 | 1021.9 |
| 20260509045153 | 53 | 0 | 0.0 | 1.0 | 0.00 | 0.00 | 0.00 | 86 | 1021.4 |
| 20260509044502 | 53 | 177 | 0.0 | 1.0 | 0.00 | 0.00 | 0.00 | 86 | 1021.9 |
| 20260509044253 | 53 | 0 | 0.0 | 1.0 | 0.00 | 0.00 | 0.00 | 85 | 1021.4 |